Location: Dallas
(32.7833°N, 96.8000°W)
Time: 11:23:32
(UTC-05:00)

Envisat - Pass Details

Date: 01 July 2022
Orbit: 763 x 765 km, 98.2° (Epoch: 09 August)

Event Time Altitude Azimuth Distance (km) Brightness Sun altitude
Rises 05:49:02 0° 13° (NNE) 3,234 7.0 -6.9°
Reaches altitude 10° 05:51:21 10° 15° (NNE) 2,304 6.3 -6.5°
Maximum altitude 05:56:26 79° 102° (ESE) 781 3.2 -5.6°
Drops below altitude 10° 06:01:29 10° 189° (S) 2,289 5.1 -4.7°
Sets 06:03:46 0° 191° (S) 3,211 5.8 -4.3°
